星链-1120 (STARLINK-1120 )

导读 | 星芒AI

STARLINK-1120 是 SpaceX Starlink 项目中的一颗低轨通信卫星,属于第 11 批发射的 Starlink 卫星群。该卫星旨在为全球用户提供高速互联网服务,尤其关注网络覆盖不足的地区。它运行在约 550 公里的轨道高度,采用先进的推进系统和激光通信技术,以提升连接效率和减少延迟。作为 Starlink 计划的一部分,STARLINK-1120 有助于构建一个由数千颗卫星组成的全球宽带网络。

基本信息
目录编号:
45045
目录名称:
STARLINK-1120
国际标识:
2020-006B
轨道中心:
EARTH
卫星名称:
星链-1120
卫星全名:
星链-1120 (STARLINK-1120 )
卫星状态:
已陨落 最后检测时间 2024-06-24
发射日期:
2020-01-29 UTC
国别 :
美国 (US)
星等 :
--
轨道信息
数据来源 国际轨道数据
星历时间: 2024-06-25T03:41:58+0800
轨道信息已过期545天
半长轴: 6570.89km
偏心率: 0.0001758
轨道倾角: 53.032°
近地点辐角 169.880°
升交点赤经 146.496°
平近点角 290.667°
近地点: 191.599km
远地点: 193.911km
周期: 88.348分钟
每日圈数: 16.299208
详细信息
固有亮度:
5
最大亮度:
2.5
卫星平台:
Starlink V1.0
覆盖范围:
全球
运营商:
太空探索技术公司
运营商所在国:
美国
制造商(研发单位):
太空探索技术公司
制造商所在国:
美国
使用方式:
暂无
卫星简介
星链(Starlink)计划是由太空探索技术公司(SpaceX)提出的一个巨型低轨卫星互联网星座项目,计划在2019年至2024年间在太空搭建由约1.2万颗卫星组成的“星链”网络,其中1584颗将部署在地球上空550千米处的近地轨道,并从2020年开始工作。该卫星已陨落。